Location: Newark
(45.8667°N, 9.7333°E)
Time: 16:09:05
(UTC+00:00)

Transit 2A - Visible Passes

Search period start: 26 January 2020 00:00
Search period end: 05 February 2020 00:00
Orbit: 601 x 958 km, 66.7° (Epoch: 25 January)

Date Brightness Start Highest point End Pass type
(mag) Time Alt. Az. Time Alt. Az. Time Alt. Az.
26 Jan 6.9 04:24:19 34° S 04:24:19 34° S 04:27:38 10° S visible
26 Jan 7.5 19:00:33 10° SSW 19:02:09 22° SSW 19:02:09 22° SSW visible
27 Jan 7.8 03:51:56 21° SSE 03:51:56 21° SSE 03:53:43 10° SSE visible
27 Jan 6.2 18:26:36 10° SSW 18:29:49 41° SSE 18:29:49 41° SSE visible
28 Jan 6.2 17:52:52 10° S 17:56:50 34° ESE 17:57:25 32° E visible
28 Jan 7.9 19:36:07 10° WSW 19:37:58 21° W 19:37:58 21° W visible
29 Jan 6.8 17:19:26 10° SSE 17:22:52 22° ESE 17:24:58 16° ENE visible
29 Jan 6.6 19:01:34 10° WSW 19:05:30 42° WNW 19:05:30 42° WNW visible
30 Jan 5.8 18:27:12 10° SW 18:31:31 63° NW 18:32:58 39° N visible
31 Jan 5.4 17:53:00 10° SSW 17:57:23 87° SE 18:00:21 20° NE visible
31 Jan 8.1 19:38:28 10° WNW 19:40:53 16° NW 19:40:53 16° NW visible
01 Feb 5.6 17:19:01 10° SSW 17:23:18 57° ESE 17:27:34 10° NE visible
01 Feb 7.7 19:03:27 10° W 19:06:46 21° NW 19:08:11 18° NNW visible
02 Feb 7.3 18:28:40 10° WSW 18:32:26 28° NW 18:35:24 14° N visible
03 Feb 6.7 17:54:05 10° WSW 17:58:11 39° NW 18:02:19 10° NNE visible
04 Feb 6.1 17:19:41 10° SW 17:23:58 58° NW 17:28:18 10° NNE visible
04 Feb 8.3 19:06:33 10° NW 19:08:08 12° NNW 19:09:43 10° N visible
